weather.gov     
National Weather Service

Other Surface Observations
NWS Homepage
This page is being discontinued on March 12, 2014.
The same data is available at this site. Please update your bookmarks.
Thank you, and we apologize for the inconvenience.
Please send an email to SR-SRH.Webmaster@noaa.gov with any concerns.


Current Version
Previous Version:    01  02  03  04  05  06  07  08  09  10  11  12  13  14  15  16  17  18  19  20  21  22  23  24  25  26  27  28  29  30  
   31  32  33  34  35  36  37  38  39  40  41  42  43  44  45  46  47  48  49  50  51  52  53  54  55  56  57  58  59  60  
[Printable]
779
SXUS52 KJAX 011210
OSOJAX
OTHER SURFACE OBSERVATIONS
NATIONAL WEATHER SERVICE JACKSONVILLE FL
800 AM EDT FRI AUG 01 2014

FLZ020>025-030>033-035>038-040-011300-
...FLORIDA...

CITY           SKY/WX    TMP DP  RH WIND       PRES   REMARKS
CECIL FIELD    SUNNY     73  73 100 CALM      29.97R FOG
HERLONG FIELD  NOT AVBL
FERNANDINA BCH NOT AVBL
LAKE CITY      FAIR      72  70  94 MISG      29.97F
JUNIPER SPGS   NOT AVBL
BUNNELL        MOSUNNY   77  75  94 S6        29.98R
KEYSTONE HGTS  PTSUNNY   75  75 100 CALM      29.98R
$$

GAZ132>136-149>154-162>166-011300-
...GEORGIA...

CITY           SKY/WX    TMP DP  RH WIND       PRES   REMARKS
JESUP          FAIR      77  75  94 CALM      29.98S FOG
HOMERVILLE     FAIR      75  73  94 CALM      29.98S FOG
SWAINSBORO     CLOUDY    75  75 100 NE5       30.03R FOG
CORDELE        NOT AVBL
$$

PLEASE NOTE:  THESE OBSERVATIONS ARE NOT QUALITY CONTROLLED AND MAY
NOT BE AVAILABLE AT ALL TIMES.
$$




U.S. Dept. of Commerce
NOAA National Weather Service
1325 East West Highway
Silver Spring, MD 20910
E-mail: w-nws.webmaster@noaa.gov
Page last modified: May 16, 2007
NATIONAL WEATHER SERVICE: for Safety, for Work, for Fun - FOR LIFE